Location: ??????????
(31.2156°N, 29.9553°E)
Time: 05:08:52
(UTC+00:00)

Cosmos 2341 Rocket - Pass Details

Date: 03 March 2021
Orbit: 968 x 1005 km, 82.9° (Epoch: 14 April)

Event Time Altitude Azimuth Distance (km) Brightness Sun altitude
Rises 16:39:42 0° 165° (SSE) 3,704 6.9 -9.3°
Reaches altitude 10° 16:42:22 10° 158° (SSE) 2,753 6.2 -9.9°
Maximum altitude 16:48:14 42° 90° (E) 1,383 4.4 -11.1°
Drops below altitude 10° 16:54:05 10° 22° (NNE) 2,743 6.1 -12.4°
Sets 16:56:43 0° 15° (NNE) 3,689 6.9 -12.9°
